This demonstration page uses our WeatherBlox Daily Observations layout. Learn more.

Left ArrowRight Arrow

Hourly Observations for November 14, 2020

Temp ( °F °C ) Dew Point ( °F °C ) Humidity (%) Winds ( mph kmh ) Pressure ( in mb ) Visibility ( mi km ) Precip ( " mm )
12:51 am 00:51 Clear 44 6.7 25 -3.9 47 47 ESE 3 6 29.98 1015 10 16 0.00 0.00
1:51 am 01:51 Clear 42 5.6 25 -3.9 51 51 SE 8 13 29.99 1016 10 16 0.00 0.00
2:51 am 02:51 Clear 40 4.4 25 -3.9 55 55 E 5 7 29.96 1014 10 16 0.00 0.00
3:51 am 03:51 Clear 39 3.9 26 -3.3 60 60 E 5 7 29.97 1015 10 16 0.00 0.00
4:51 am 04:51 Clear 38 3.3 26 -3.3 62 62 Calm 29.97 1015 10 16 0.00 0.00
5:51 am 05:51 Clear 38 3.3 26 -3.3 62 62 Calm 29.99 1016 10 16 0.00 0.00
6:51 am 06:51 Sunny 34 1.1 24 -4.4 67 67 Calm 30.03 1017 10 16 0.00 0.00
7:51 am 07:51 Sunny 45 7.2 29 -1.7 54 54 Calm 30.02 1017 10 16 0.00 0.00
8:51 am 08:51 Sunny 47 8.3 27 -2.8 46 46 SSW 5 7 30.06 1018 10 16 0.00 0.00
9:51 am 09:51 Sunny 54 12.2 31 -0.6 42 42 VRB 3 6 30.06 1018 10 16 0.00 0.00
10:51 am 10:51 Sunny 60 15.6 31 -0.6 33 33 SSW 6 9 30.04 1017 10 16 0.00 0.00
11:51 am 11:51 Sunny 68 20 27 -2.8 21 21 undefined N/A 29.99 1016 10 16 0.00 0.00
12:51 pm 12:51 Sunny 71 21.7 22 -5.6 16 16 NW 13 20 29.96 1015 10 16 0.00 0.00
1:51 pm 13:51 Sunny 72 22.2 23 -5 16 16 NW 20 31 29.95 1014 10 16 0.00 0.00
2:51 pm 14:51 Sunny 72 22.2 23 -5 16 16 NW 23 37 29.94 1014 10 16 0.00 0.00
3:51 pm 15:51 Sunny 71 21.7 24 -4.4 17 17 NW 15 24 29.96 1015 10 16 0.00 0.00
4:51 pm 16:51 Sunny 68 20 24 -4.4 19 19 WNW 16 26 29.97 1015 10 16 0.00 0.00
5:51 pm 17:51 Clear 64 17.8 24 -4.4 22 22 NW 13 20 30.01 1016 10 16 0.00 0.00
6:51 pm 18:51 Clear 61 16.1 24 -4.4 24 24 NW 8 13 30.05 1018 10 16 0.00 0.00
7:51 pm 19:51 Clear 59 15 24 -4.4 26 26 NW 12 19 30.06 1018 10 16 0.00 0.00
8:51 pm 20:51 Clear 54 12.2 23 -5 30 30 NNW 10 17 30.09 1019 10 16 0.00 0.00
9:51 pm 21:51 Clear 54 12.2 21 -6.1 28 28 NNW 7 11 30.11 1020 10 16 0.00 0.00
10:51 pm 22:51 Clear 51 10.6 18 -7.8 27 27 SSE 3 6 30.12 1020 10 16 0.00 0.00
11:51 pm 23:51 Clear 47 8.3 18 -7.8 31 31 SSE 6 9 30.13 1020 10 16 0.00 0.00

Powered by AerisWeather